Weather in Shaberdino

Russia / Udmurt Republic     56°54′57″N   52°59′59″E
temp.,
°C
wind,
m/s
gust,
m/s
humid.,
%
clouds,
%
prec.,
mm/h
press.,
hPa
HPBL,
m
24 june, thu
thu2401:00+17e11915 0.0 101911
04:00+16e11935 0.0 102011
07:00+22s127654 0.0 1019321
10:00+27sw23596 0.0 10181032
13:00+27wsw23606 1.2 10181172
16:00+31nw35390 1.3 10162317
19:00+26w24675 0.0 1015150
22:00+17nnw51492100 4.6 1017489
25 june, fri
fri2501:00+18wnw3896100 1.2 1014163
04:00+17wnw269699 1.8 101398
07:00+21nw398854 0.0 1014304
10:00+28wnw245474 0.0 1013615
13:00+32wnw354172 0.0 10121634
16:00+33nw56365 0.0 10112457
19:00+29nw37570 0.0 1010400
22:00+22nnw24861 0.3 101172
26 june, sat
sat2601:00+18ene23965 1.1 101251
04:00+16w269812 1.1 1012121
07:00+20nw249112 0.0 1011243
10:00+26nw345928 0.0 1011946
13:00+30nnw454520 0.0 10112091
16:00+30nnw554496 0.0 10112199
19:00+25nnw276763 0.0 1011286
22:00+21nnw228158 0.0 101226
27 june, sun
sun2701:00+19nw118763 0.0 101212
04:00+21w2379100 0.0 101270
07:00+23wnw257415 0.0 1013226
10:00+29wnw344961 0.0 10121236
13:00+32wnw344084 0.0 10122538
16:00+23ne488264 1.0 1013293
19:00+24ssw13844 0.8 1013140
22:00+20wsw119511 2.3 101416
28 june, mon
mon2801:00+19e239884 1.9 101359
04:00+18ese12985 2.3 101432
07:00+21ese23926 0.3 1014244
10:00+27se23625 0.3 1014914
13:00+29se225942 1.4 10141565
16:00+28e2268100 5.1 1013410
19:00+24ssw4885100 2.4 1014170
22:00+21se11854 2.5 101311